FENGYUN 1C DEB, 31199

Orbit data source: Space-Track

FENGYUN 1C DEB, 31199 is space debris in SSO originally from a launch on Mon, 10 May 1999 UTC launched from the Taiyaun Space Center, China (TSC). Fengyun 1C debris stems from the Chinese weather satellite Fengyun-1C, which was intentionally destroyed by a Chinese anti-satellite missile in 2007. This event dramatically increased the amount of space debris, with thousands of trackable fragments posing hazards to satellites and human spaceflight. The Fengyun 1C debris cloud has become a focal point in discussions about space sustainability and the need for international regulations to prevent the creation of new debris.

Loading next visibility...
Identifier
31199, 1999-025BKD
Orbit
SSO
Country
Flag of CNCN / PRC
Related business
Manufacturer
Unknown
Mission
Spacecraft
Bus & Motor
Unknown
Mass
Unknown
Launch date (UTC)
1999-05-10 (27 years ago)
Launch vehicle
Unknown
Launch site
Taiyaun Space Center, China (TSC)
Object type
Payload
Rocket body
Debris
Shape & HBR
Unknown shape, 0.1 m
Radar Cross Section
Small (<0.1 m²)

Expand to show TLE details & history
Last TLE update: 5 days ago

TLE from 5 days ago
0 FENGYUN 1C DEB
1 31199U 99025BKD 26146.42354668  .00000293  00000-0  18591-3 0  9996
2 31199  98.7317 129.2552 0064727 151.8545   1.6665 14.10104975984806
Epoch: 2026-05-26T10:09Z
TLE epoch observation values (Epoch: 2026-05-26T10:09:54.433Z)
Latitude
26.16245°
Longitude
-82.91476°
Altitude
815.344 km
Speed
7.472 km/s
True Right ascension
20h 54m 14s
True Declination
26° 01' 40"
Sunlit
Object was in daylight at epoch
Visualization orbit readout
Latitude
Unknown
Longitude
Unknown
Altitude
Unknown
Speed
Unknown
Apparent Right ascension
Unknown
Apparent Declination
Unknown
Sunlit
N/A
Visualization observer readout
Local Sidereal Time
23:38:29
Azimuth
Unknown
Elevation
Unknown
Doppler factor
Unknown
Orbital elements
Apogee altitude
903.011 km
Perigee altitude
809.36 km
Semi-major axis
7,234.322 km
Eccentricity
0.00647
Inclination
98.7317°
RAAN
129.2552°
Arg. of periapsis
151.8545°
True anomaly
1.68825°
Mean anomaly
1.6665°
Eccentric anomaly
1.67736°
Mean motion
3.52733 °/min
Orbital period
102.06 mins
BSTAR
0.00018591
Loading maneuver chart data...
Computing Atmospheric mass density...
Loading historical data...
Loading historical data...
Loading historical data...
Loading historical data...
Loading historical data...
Loading historical data...
Loading historical data...

Documentation

Showing up to 5 results
|